Chicago DuPage, IL

7:09 AM CDT on April 21, 2018 (GMT -0500)
Du Page

Weather History for KDPA - October, 2013

Change the Weather History Date:

Saturday, October 5, 2013

  Actual Average Record
Temperature  
Mean Temperature 71 °F 56 °F  
Max Temperature 81 °F 68 °F 85 °F (2007)
Min Temperature 60 °F 45 °F 27 °F (2004)
Degree Days  
Heating Degree Days 0 10  
Month to date heating degree days 0 45  
Since 1 July heating degree days 125 156  
Cooling Degree Days 6 1  
Month to date cooling degree days 16 5  
Year to date cooling degree days 745 808  
Growing Degree Days 20 (Base 50)    
Moisture  
Dew Point 66 °F    
Average Humidity 89    
Maximum Humidity 100    
Minimum Humidity 70    
Precipitation  
Precipitation 0.15 in 0.10 in 0.86 in (1998)
Month to date precipitation 0.33 0.60  
Year to date precipitation 29.79 29.52  
Sea Level Pressure  
Sea Level Pressure 29.86 in    
Wind  
Wind Speed 7 mph (South)    
Max Wind Speed 21 mph    
Max Gust Speed 28 mph    
Visibility 6 miles    
Events Fog , Rain    
T = Trace of Precipitation, MM = Missing Value Source: NWS Daily Summary

Daily Weather History Graph

Daily Weather History Graph

Search for Another Location

Airport or City:

Astronomy

Oct. 05, 2013 Rise Set
Actual Time 6:54 AM CDT 6:27 PM CDT
Civil Twilight 6:26 AM CDT 6:55 PM CDT
Nautical Twilight 5:54 AM CDT 7:27 PM CDT
Astronomical Twilight 5:21 AM CDT 7:59 PM CDT
Moon 7:34 AM CDT (10/5) 6:44 PM CDT (10/5)
Length of Visible Light 12h 28m
Length of Day
11h 32m
New Moon, 1% of the Moon is Illuminated
Oct 5
New Moon
Oct 11
First Quarter
Oct 18
Full
Oct 26
Last Quarter
Nov 3
New

Hourly Weather History & Observations

Time (CDT) Temp. Heat Index Dew Point Humidity Pressure Visibility Wind Dir Wind Speed Gust Speed Precip Events Conditions
12:52 AM 64.0 °F - 63.0 °F 96% 29.94 in 3.0 mi ENE 4.6 mph - N/A   Clear
1:04 AM 64.4 °F - 62.6 °F 94% 29.94 in 2.5 mi Calm Calm - N/A   Clear
1:47 AM 62.6 °F - 60.8 °F 94% 29.94 in 1.0 mi Calm Calm - N/A   Clear
1:52 AM 62.1 °F - 61.0 °F 96% 29.93 in 0.8 mi Calm Calm - N/A   Mist
1:59 AM 64.4 °F - 62.6 °F 94% 29.94 in 1.2 mi Calm Calm - N/A   Partly Cloudy
2:16 AM 62.6 °F - 62.6 °F 100% 29.93 in 0.8 mi Calm Calm - N/A   Mist
2:26 AM 60.8 °F - 60.8 °F 100% 29.93 in 0.2 mi Calm Calm - N/A Fog Fog
2:47 AM 62.6 °F - 62.6 °F 100% 29.92 in 1.0 mi South 3.5 mph - N/A   Mist
2:52 AM 62.1 °F - 62.1 °F 100% 29.91 in 1.8 mi South 3.5 mph - N/A   Mist
2:59 AM 62.6 °F - 62.6 °F 100% 29.92 in 1.2 mi SSE 3.5 mph - N/A   Partly Cloudy
3:40 AM 64.4 °F - 62.6 °F 94% 29.92 in 3.0 mi South 3.5 mph - N/A   Clear
3:52 AM 64.0 °F - 63.0 °F 96% 29.91 in 4.0 mi South 3.5 mph - N/A   Clear
4:52 AM 66.0 °F - 64.9 °F 96% 29.91 in 6.0 mi SSE 5.8 mph - N/A   Scattered Clouds
5:52 AM 66.9 °F - 66.0 °F 97% 29.91 in 6.0 mi SSE 6.9 mph - N/A   Mostly Cloudy
6:25 AM 66.2 °F - 66.2 °F 100% 29.92 in 5.0 mi South 6.9 mph - N/A   Mostly Cloudy
6:36 AM 68.0 °F - 66.2 °F 94% 29.92 in 5.0 mi South 8.1 mph - N/A   Overcast
6:52 AM 68.0 °F - 66.9 °F 96% 29.90 in 5.0 mi South 6.9 mph - N/A   Overcast
7:52 AM 70.0 °F - 68.0 °F 93% 29.91 in 4.0 mi South 6.9 mph - N/A   Overcast
8:52 AM 70.0 °F - 69.1 °F 97% 29.91 in 4.0 mi South 6.9 mph - N/A   Overcast
9:52 AM 72.0 °F - 69.1 °F 91% 29.91 in 5.0 mi SSW 5.8 mph - N/A   Overcast
10:52 AM 73.9 °F - 69.1 °F 85% 29.91 in 6.0 mi South 6.9 mph - N/A   Haze
11:03 AM 73.4 °F - 69.8 °F 88% 29.91 in 7.0 mi South 6.9 mph - N/A   Overcast
11:52 AM 75.9 °F - 70.0 °F 82% 29.89 in 8.0 mi South 8.1 mph - N/A   Overcast
12:05 PM 75.2 °F - 69.8 °F 83% 29.89 in 8.0 mi South 6.9 mph - N/A   Overcast
12:52 PM 77.0 °F - 70.0 °F 79% 29.86 in 8.0 mi West 6.9 mph - N/A   Mostly Cloudy
1:44 PM 78.8 °F - 69.8 °F 74% 29.84 in 10.0 mi SSW 6.9 mph - N/A   Mostly Cloudy
1:52 PM 79.0 °F - 70.0 °F 74% 29.83 in 10.0 mi SW 6.9 mph - N/A   Mostly Cloudy
2:52 PM 80.1 °F 83.2 °F 70.0 °F 71% 29.80 in 10.0 mi South 6.9 mph - N/A   Mostly Cloudy
3:16 PM 78.8 °F - 69.8 °F 74% 29.80 in 10.0 mi South 5.8 mph - N/A   Mostly Cloudy
3:26 PM 80.6 °F 83.9 °F 69.8 °F 70% 29.79 in 10.0 mi SW 5.8 mph - N/A   Mostly Cloudy
3:52 PM 78.1 °F - 68.0 °F 71% 29.78 in 10.0 mi WSW 10.4 mph - N/A   Mostly Cloudy
4:41 PM 71.6 °F - 64.4 °F 78% 29.81 in 10.0 mi SSE 13.8 mph - N/A   Overcast
4:52 PM 69.1 °F - 64.9 °F 87% 29.81 in 2.5 mi SSE 13.8 mph - 0.10 in Rain Heavy Rain
5:01 PM 69.8 °F - 64.4 °F 83% 29.82 in 10.0 mi South 6.9 mph - 0.00 in Rain Light Rain
5:13 PM 69.8 °F - 64.4 °F 83% 29.82 in 10.0 mi South 6.9 mph - 0.00 in   Overcast
5:52 PM 70.0 °F - 66.0 °F 87% 29.80 in 10.0 mi SSE 4.6 mph - 0.00 in   Scattered Clouds
6:52 PM 69.1 °F - 64.9 °F 87% 29.77 in 10.0 mi ESE 6.9 mph - N/A   Clear
7:52 PM 68.0 °F - 66.9 °F 96% 29.79 in 8.0 mi South 4.6 mph - N/A   Clear
8:18 PM 68.0 °F - 66.2 °F 94% 29.81 in 7.0 mi South 3.5 mph - 0.00 in Rain Light Rain
8:35 PM 69.8 °F - 66.2 °F 88% 29.81 in 8.0 mi South 6.9 mph - 0.00 in   Overcast
8:52 PM 69.1 °F - 66.9 °F 93% 29.80 in 8.0 mi South 5.8 mph - 0.00 in Rain Light Rain
9:08 PM 69.8 °F - 66.2 °F 88% 29.81 in 6.0 mi South 5.8 mph - 0.04 in Rain Light Rain
9:52 PM 68.0 °F - 63.0 °F 84% 29.79 in 10.0 mi SW 9.2 mph - 0.04 in   Mostly Cloudy
10:52 PM 66.0 °F - 63.0 °F 90% 29.77 in 10.0 mi Calm Calm - 0.00 in Rain Light Rain
11:28 PM 66.2 °F - 62.6 °F 88% 29.78 in 10.0 mi SW 8.1 mph - 0.00 in   Mostly Cloudy
11:52 PM 64.9 °F - 61.0 °F 87% 29.77 in 10.0 mi SW 12.7 mph - 0.00 in   Overcast